Regional Weather Roundup
Issued by NWS

Home | Current Version | Previous Version | Text Only | Print | Product List | Glossary Off
Versions: 1 2 3 4 5 6 7 8 9 10 11 12 13 14 15 16 17 18 19 20 21 22 23 24 25 26 27 28 29 30 31 32 33 34 35 36 37 38 39 40 41 42 43 44 45 46 47 48 49 50

000
ASUS43 KMKX 261911
RWRWI

WISCONSIN REGIONAL WEATHER ROUNDUP
NATIONAL WEATHER SERVICE MILWAUKEE/SULLIVAN WI
200 PM CDT FRI MAY 26 2017

NOTE: "FAIR" INDICATES FEW OR NO CLOUDS BELOW 12,000 FEET WITH NO
SIGNIFICANT WEATHER AND/OR OBSTRUCTIONS TO VISIBILITY.

WIZ001-002-006>008-014>016-023>028-262000-
NORTHWEST WISCONSIN

CITY           SKY/WX    TMP DP  RH WIND       PRES   REMARKS
SUPERIOR ARPT  NOT AVBL
ASHLAND        CLOUDY    55  50  83 NW5       29.76S
HAYWARD        CLOUDY    68  52  56 S13       29.76S
SIREN          PTSUNNY   73  55  51 S15G21    29.73S
CUMBERLAND     CLOUDY    68  55  64 S10       29.76F
RICE LAKE      LGT RAIN  68  53  58 S12       29.78S
CHETEK         CLOUDY    70  56  62 SW7       29.77S
LADYSMITH      LGT RAIN  69  56  63 S7        29.80S
EAU CLAIRE     PTSUNNY   71  51  49 S8        29.77S
MENOMONIE      CLOUDY    71  55  58 SW7       29.77S
NEW RICHMOND   CLOUDY    72  56  57 S14       29.75S
OSCEOLA        MOSUNNY   74  57  55 S14G21    29.76S
$$

WIZ003>005-009-010-017-018-262000-
NORTH CENTRAL WISCONSIN

CITY           SKY/WX    TMP DP  RH WIND       PRES   REMARKS
MANITOWISH WTR CLOUDY    65  56  71 S10       29.80S
ARBOR VITAE    CLOUDY    67  56  66 S9        29.80F
WOODRUFF       CLOUDY    67  56  66 S9        29.80F
RHINELANDER    CLOUDY    69  53  56 SW8       29.83R
EAGLE RIVER    MOSUNNY   65  50  58 SE3       29.82S
LAND O LAKES   CLOUDY    66  52  61 S7        29.83S
PHILLIPS       LGT RAIN  65  56  71 S7        29.79S
TOMAHAWK       CLOUDY    67  54  62 S5        29.82S
MEDFORD        CLOUDY    66  56  69 S10       29.81S
MERRILL        CLOUDY    70  56  60 S6        29.82S HAZE
$$

WIZ029-030-035-036-043>047-262000-
CENTRAL WISCONSIN

CITY           SKY/WX    TMP DP  RH WIND       PRES   REMARKS
WAUSAU         CLOUDY    69  56  62 S9        29.81S
MOSINEE        PTSUNNY   70  57  64 S6        29.83F
MARSHFIELD     CLOUDY    68  55  63 S9        29.80S
STEVENS POINT  CLOUDY    68  54  61 SE7       29.83S
WAUPACA        CLOUDY    71  56  58 SE8       29.83S
WAUTOMA        CLOUDY    70  55  59 S7        29.83R
WISC RAPIDS    CLOUDY    72  54  53 S8        29.82R
CAMP DOUGLAS   CLOUDY    70  55  60 S8        29.82R
$$

WIZ011>013-019>022-031-037>040-048>050-262000-
NORTHEAST WISCONSIN

CITY           SKY/WX    TMP DP  RH WIND       PRES   REMARKS
ANTIGO         CLOUDY    67  56  67 S9        29.83S
SHAWANO        CLOUDY    72  56  58 SE6       29.83R
OCONTO         CLOUDY    66  55  67 E3        29.83S
STURGEON BAY   SUNNY     64  52  64 SE9       29.86R
GREEN BAY      CLOUDY    69  59  70 S7        29.83S
MANITOWOC      CLOUDY    57  51  80 SE7       29.86S
APPLETON       CLOUDY    66  52  59 SE8       29.82S
CLINTONVILLE   CLOUDY    70  52  52 S6        29.83R
OSHKOSH        CLOUDY    68  56  65 E8        29.82S
$$

WIZ032>034-041-042-053>061-262000-
SOUTHWEST WISCONSIN

CITY           SKY/WX    TMP DP  RH WIND       PRES   REMARKS
LA CROSSE      CLOUDY    70  56  61 S12       29.80R
SPARTA         CLOUDY    69  56  62 S9        29.82R
VIROQUA        CLOUDY    65  55  67 MISG      29.83S
BOSCOBEL       CLOUDY    66  58  75 VRB3      29.82S
PRAIRIE DU CHI LGT RAIN  64  55  74 S5        29.83R
PLATTEVILLE    CLOUDY    60  60 100 E8        29.82F
$$

WIZ056-057-062-063-064-067-068-262000-
SOUTH CENTRAL WISCONSIN

CITY           SKY/WX    TMP DP  RH WIND       PRES   REMARKS
REEDSBURG      CLOUDY    67  56  69 S6        29.83R
BARABOO/DELLS  CLOUDY    66  55  67 S9        29.83R
LONE ROCK      CLOUDY    65  58  78 SE8       29.83R
MINERAL POINT  RAIN      59  55  88 E6        29.83F
MADISON        LGT RAIN  66  59  78 S8        29.83R
MIDDLETON      CLOUDY    65  59  78 SW8       29.85R
WATERTOWN      CLOUDY    66  57  71 SE8       29.83S
MONROE         RAIN      63  57  82 CALM      29.84R
JANESVILLE     NOT AVBL
$$

WIZ051-052-058>065-066-070>072-262000-
SOUTHEAST WISCONSIN

CITY           SKY/WX    TMP DP  RH WIND       PRES   REMARKS
MILWAUKEE      LGT RAIN  57  54  89 E5        29.86R
WAUKESHA       LGT RAIN  61  52  72 E12       29.86R
MILWAUKEE/TIMM SUNNY     61  48  63 SE6       29.86R
RACINE         CLOUDY    56  52  86 SE5       29.87S
KENOSHA        CLOUDY    60  52  74 E8        29.86R
FOND DU LAC    LGT RAIN  72  55  55 SE12      29.83R
SHEBOYGAN      CLOUDY    62  54  74 SE8       29.85S
WEST BEND      CLOUDY    63  54  72 S7        29.85R
JUNEAU         PTSUNNY   68  56  65 SE10      29.84S
$$

LSZ147-162-262000-
LAKE SUPERIOR

STATION/POSITION TIME  TEMP    WIND        PRES    WAVE
                       AIR SEA DIR/SP/G            HT/PER
                 (UTC) (F)     (DEG/KT/KT) (MB)    (FT/S)
W MID LAKE BUOY  1850   43 37   40/  8/ 10 1008.7S   0
DEVILS ISLAND    1900   50     110/ 10/ 11 1007.3F
PORT WING        1840   44      10/  8/ 11 1007.1S
SAXON HARBOR     1840   51      CALM  /  2 1007.5F
$$

LMZ867-665-643>646-262000-
LAKE MICHIGAN

STATION/POSITION TIME  TEMP    WIND        PRES    WAVE
                       AIR SEA DIR/SP/G            HT/PER
                 (UTC) (F)     (DEG/KT/KT) (MB)    (FT/S)
CHAMBERS ISLAND  1840   59      20/  2/  5 1010.2S
N MID LAKE BUOY  1850   42 42  210/  6/  6 1012.2R   0
NORTHPORT PIER   1840   54     140/ 12/ 14 1010.8S
KEWAUNEE LAKESHO 1842   46     160/  6/  7 1011.2R
SHEBOYGAN LAKESH 1900   48     160/  4/  5 1011.1R
PORT WASHINGTON  1840   50     160/  3/  4 1012.5R
ATWATER BUOY     1809   46      70/  2/  2 1011.5R
MILWAUKEE LAKESH 1850   47      60/  2/  3   N/A
S MID LAKE BUOY  1750   48 47   50/  4/  4 1011.2F   1
KENOSHA   LAKESH 1900   51        CALM     1011.2
$$

TC  - TEMPERATURE IN CELSIUS
VSB - VISIBILITY IN STATUTE MILES
WCI - WIND CHILL INDEX
HX  - HEAT INDEX





USA.gov is the U.S. government's official web portal to all federal, state and local government web resources and services.